• In Österreich
  • Länderverzeichnis
  • Für 7 Tage
  • Wassertemperatur
  • Satellitenkarten
  • Wetterkarte
  • News
  • Widgets
  • user-avatar
    Anmelden

    Stündliche Wetter Rokitno

    Heute, 20 September, Donnerstag

    Zeit Temperatur Niederschläge Wind Luftdruck Luftfeuchtigkeit
    00:00 +21°C° 0.1 mm 2 m/S 757 mmHg 70%
    01:00 +20°C° 0.1 mm 2 m/S 757 mmHg 73%
    02:00 +20°C° 0 mm 2 m/S 757 mmHg 75%
    03:00 +19°C° 0 mm 2 m/S 757 mmHg 77%
    04:00 +19°C° 0 mm 2 m/S 757 mmHg 79%
    05:00 +19°C° 0 mm 2 m/S 757 mmHg 79%
    06:00 +19°C° 0 mm 2 m/S 758 mmHg 79%
    07:00 +20°C° 0 mm 2 m/S 758 mmHg 78%
    08:00 +21°C° 0 mm 2 m/S 758 mmHg 71%
    09:00 +24°C° 0 mm 2 m/S 758 mmHg 63%
    10:00 +26°C° 0 mm 2 m/S 758 mmHg 56%
    11:00 +27°C° 0 mm 2 m/S 758 mmHg 53%
    12:00 +28°C° 0 mm 3 m/S 757 mmHg 49%
    13:00 +29°C° 0 mm 3 m/S 757 mmHg 46%
    14:00 +29°C° 0 mm 3 m/S 757 mmHg 46%
    15:00 +29°C° 0 mm 3 m/S 756 mmHg 45%
    16:00 +29°C° 0 mm 3 m/S 756 mmHg 45%
    17:00 +28°C° 0 mm 3 m/S 756 mmHg 50%
    18:00 +26°C° 0 mm 2 m/S 756 mmHg 55%
    19:00 +24°C° 0 mm 2 m/S 756 mmHg 61%
    20:00 +24°C° 0 mm 2 m/S 756 mmHg 62%
    21:00 +23°C° 0 mm 2 m/S 755 mmHg 64%
    22:00 +23°C° 0 mm 2 m/S 755 mmHg 66%
    23:00 +21°C° 0 mm 3 m/S 755 mmHg 66%

    Morgen, 21 September, Freitag

    Zeit Temperatur Niederschläge Wind Luftdruck Luftfeuchtigkeit
    00:00 +21°C° 0 mm 3 m/S 755 mmHg 67%
    01:00 +21°C° 0 mm 3 m/S 754 mmHg 67%
    02:00 +20°C° 0 mm 3 m/S 754 mmHg 68%
    03:00 +20°C° 0 mm 3 m/S 754 mmHg 68%
    04:00 +20°C° 0 mm 3 m/S 753 mmHg 69%
    05:00 +20°C° 0 mm 3 m/S 753 mmHg 68%
    06:00 +20°C° 0 mm 4 m/S 753 mmHg 67%
    07:00 +20°C° 0 mm 4 m/S 752 mmHg 67%
    08:00 +22°C° 0 mm 5 m/S 752 mmHg 60%
    09:00 +26°C° 0 mm 5 m/S 752 mmHg 54%
    10:00 +28°C° 0 mm 6 m/S 751 mmHg 47%
    11:00 +29°C° 0 mm 6 m/S 751 mmHg 42%
    12:00 +30°C° 0 mm 7 m/S 750 mmHg 38%
    13:00 +32°C° 0 mm 7 m/S 749 mmHg 33%
    14:00 +30°C° 0 mm 7 m/S 749 mmHg 35%
    15:00 +30°C° 0 mm 6 m/S 749 mmHg 37%
    16:00 +30°C° 0 mm 6 m/S 749 mmHg 39%
    17:00 +26°C° 0.2 mm 6 m/S 750 mmHg 47%
    18:00 +21°C° 0.2 mm 7 m/S 751 mmHg 55%
    19:00 +16°C° 0.2 mm 7 m/S 752 mmHg 63%
    20:00 +15°C° 0.1 mm 6 m/S 753 mmHg 62%
    21:00 +15°C° 0.1 mm 5 m/S 753 mmHg 62%
    22:00 +14°C° 0.1 mm 3 m/S 754 mmHg 61%
    23:00 +14°C° 0 mm 4 m/S 755 mmHg 58%

    übermorgen, 22 September, Samstag

    Zeit Temperatur Niederschläge Wind Luftdruck Luftfeuchtigkeit
    00:00 +14°C° 0 mm 4 m/S 755 mmHg 55%
    01:00 +14°C° 0 mm 4 m/S 755 mmHg 53%
    02:00 +13°C° 0 mm 4 m/S 755 mmHg 52%
    03:00 +13°C° 0 mm 4 m/S 755 mmHg 52%
    04:00 +13°C° 0 mm 4 m/S 756 mmHg 52%
    05:00 +13°C° 0 mm 5 m/S 756 mmHg 54%
    06:00 +12°C° 0 mm 5 m/S 756 mmHg 56%
    07:00 +12°C° 0 mm 5 m/S 756 mmHg 58%
    08:00 +14°C° 0 mm 6 m/S 756 mmHg 55%
    09:00 +15°C° 0 mm 6 m/S 757 mmHg 52%
    10:00 +16°C° 0 mm 6 m/S 757 mmHg 49%
    11:00 +16°C° 0.1 mm 7 m/S 757 mmHg 46%
    12:00 +17°C° 0.1 mm 7 m/S 756 mmHg 43%
    13:00 +18°C° 0.1 mm 7 m/S 756 mmHg 41%
    14:00 +18°C° 0 mm 7 m/S 756 mmHg 41%
    15:00 +17°C° 0 mm 6 m/S 756 mmHg 41%
    16:00 +17°C° 0 mm 6 m/S 756 mmHg 41%
    17:00 +16°C° 0 mm 5 m/S 756 mmHg 43%
    18:00 +16°C° 0 mm 5 m/S 757 mmHg 45%
    19:00 +15°C° 0 mm 4 m/S 757 mmHg 47%
    20:00 +14°C° 0 mm 4 m/S 757 mmHg 50%
    21:00 +13°C° 0 mm 4 m/S 757 mmHg 52%
    22:00 +13°C° 0 mm 4 m/S 758 mmHg 55%
    23:00 +12°C° 0 mm 4 m/S 758 mmHg 58%

    23 September, Sonntag

    Zeit Temperatur Niederschläge Wind Luftdruck Luftfeuchtigkeit
    00:00 +11°C° 0 mm 4 m/S 758 mmHg 60%
    01:00 +11°C° 0 mm 4 m/S 758 mmHg 63%
    02:00 +10°C° 0 mm 3 m/S 757 mmHg 65%
    03:00 +10°C° 0 mm 3 m/S 757 mmHg 67%
    04:00 +9°C° 0 mm 3 m/S 757 mmHg 70%
    05:00 +10°C° 0 mm 3 m/S 757 mmHg 70%
    06:00 +10°C° 0 mm 4 m/S 757 mmHg 70%
    07:00 +10°C° 0 mm 4 m/S 757 mmHg 70%
    08:00 +11°C° 0 mm 4 m/S 757 mmHg 63%
    09:00 +13°C° 0 mm 4 m/S 757 mmHg 57%
    10:00 +14°C° 0 mm 4 m/S 757 mmHg 50%
    11:00 +15°C° 0 mm 4 m/S 756 mmHg 48%
    12:00 +17°C° 0 mm 4 m/S 755 mmHg 45%
    13:00 +17°C° 0 mm 4 m/S 754 mmHg 43%
    14:00 +17°C° 0.1 mm 3 m/S 753 mmHg 49%
    15:00 +16°C° 0.1 mm 3 m/S 752 mmHg 54%
    16:00 +15°C° 0.1 mm 2 m/S 751 mmHg 60%
    17:00 +14°C° 2.9 mm 3 m/S 749 mmHg 69%
    18:00 +13°C° 2.9 mm 4 m/S 748 mmHg 78%
    19:00 +12°C° 2.9 mm 5 m/S 747 mmHg 87%
    20:00 +13°C° 4.1 mm 5 m/S 745 mmHg 89%
    21:00 +14°C° 4.1 mm 6 m/S 743 mmHg 91%
    22:00 +14°C° 4.1 mm 6 m/S 741 mmHg 92%
    23:00 +15°C° 2.7 mm 6 m/S 740 mmHg 92%

    24 September, Montag

    Zeit Temperatur Niederschläge Wind Luftdruck Luftfeuchtigkeit
    00:00 +16°C° 2.7 mm 6 m/S 738 mmHg 91%
    01:00 +17°C° 2.7 mm 7 m/S 736 mmHg 90%
    02:00 +16°C° 0.9 mm 7 m/S 736 mmHg 85%
    03:00 +15°C° 0.9 mm 8 m/S 735 mmHg 79%
    04:00 +12°C° 0.9 mm 9 m/S 734 mmHg 74%
    05:00 +12°C° 0 mm 8 m/S 734 mmHg 77%
    06:00 +12°C° 0 mm 7 m/S 735 mmHg 80%
    07:00 +11°C° 0 mm 6 m/S 735 mmHg 82%
    08:00 +11°C° 0.9 mm 9 m/S 737 mmHg 82%
    09:00 +9°C° 0.9 mm 11 m/S 738 mmHg 81%
    10:00 +9°C° 0.9 mm 13 m/S 740 mmHg 81%
    11:00 +9°C° 0.5 mm 13 m/S 742 mmHg 77%
    12:00 +10°C° 0.5 mm 12 m/S 744 mmHg 74%
    13:00 +10°C° 0.5 mm 12 m/S 746 mmHg 70%
    14:00 +11°C° 0.2 mm 11 m/S 748 mmHg 70%
    15:00 +11°C° 0.2 mm 11 m/S 749 mmHg 70%
    16:00 +11°C° 0.2 mm 11 m/S 751 mmHg 69%
    17:00 +10°C° 0.1 mm 9 m/S 752 mmHg 71%
    18:00 +9°C° 0.1 mm 8 m/S 753 mmHg 73%
    19:00 +9°C° 0.1 mm 7 m/S 754 mmHg 74%
    20:00 +9°C° 0.1 mm 7 m/S 755 mmHg 75%
    21:00 +8°C° 0.1 mm 7 m/S 756 mmHg 76%
    22:00 +8°C° 0.1 mm 7 m/S 757 mmHg 77%
    23:00 +8°C° 0.1 mm 7 m/S 757 mmHg 76%

    25 September, Dienstag

    Zeit Temperatur Niederschläge Wind Luftdruck Luftfeuchtigkeit
    00:00 +7°C° 0.1 mm 6 m/S 758 mmHg 76%
    01:00 +7°C° 0.1 mm 6 m/S 758 mmHg 75%
    02:00 +7°C° 0 mm 6 m/S 759 mmHg 76%
    03:00 +7°C° 0 mm 6 m/S 759 mmHg 76%
    04:00 +7°C° 0 mm 6 m/S 759 mmHg 77%
    05:00 +7°C° 0.1 mm 6 m/S 760 mmHg 78%
    06:00 +7°C° 0.1 mm 6 m/S 760 mmHg 79%
    07:00 +7°C° 0.1 mm 6 m/S 760 mmHg 80%
    08:00 +8°C° 0.2 mm 6 m/S 761 mmHg 74%
    09:00 +9°C° 0.2 mm 6 m/S 762 mmHg 67%
    10:00 +10°C° 0.2 mm 6 m/S 762 mmHg 61%
    11:00 +11°C° 0.2 mm 6 m/S 763 mmHg 58%
    12:00 +11°C° 0.2 mm 6 m/S 763 mmHg 54%
    13:00 +13°C° 0.2 mm 6 m/S 763 mmHg 51%
    14:00 +13°C° 0 mm 6 m/S 763 mmHg 51%
    15:00 +13°C° 0 mm 6 m/S 763 mmHg 50%
    16:00 +13°C° 0 mm 5 m/S 764 mmHg 49%
    17:00 +12°C° 0 mm 4 m/S 764 mmHg 55%
    18:00 +11°C° 0 mm 3 m/S 764 mmHg 62%
    19:00 +9°C° 0 mm 2 m/S 764 mmHg 68%
    20:00 +9°C° 0 mm 2 m/S 765 mmHg 71%
    21:00 +9°C° 0 mm 2 m/S 765 mmHg 75%
    22:00 +9°C° 0 mm 2 m/S 765 mmHg 78%
    23:00 +8°C° 0 mm 2 m/S 765 mmHg 82%
    Mehr zeigen